Weather History for Newark, NJ

Change the Weather History Date:

Thursday, December 12, 2013

  Actual Average Record
Temperature  
Mean Temperature 24 °F 38 °F  
Max Temperature 28 °F 45 °F 68 °F (1931)
Min Temperature 20 °F 31 °F 6 °F (1988)
Degree Days  
Heating Degree Days 41 27  
Month to date heating degree days 315 306  
Since 1 July heating degree days 1185 1174  
Cooling Degree Days 0 0  
Month to date cooling degree days 0 0  
Year to date cooling degree days 1337 1192  
Moisture  
Dew Point 8 °F    
Average Humidity 50    
Maximum Humidity 63    
Minimum Humidity 37    
Precipitation  
Precipitation 0.00 in 0.13 in 1.51 in (1960)
Month to date precipitation 1.67 1.57  
Year to date precipitation 39.99 44.01  
Snow  
Snow 0.00 in 0.20 in 16.70 in (1960)
Month to date snowfall 3.1 1.4  
Since 1 July snowfall 3.1 1.8  
Snow Depth 0.00 in    
Sea Level Pressure  
Sea Level Pressure 30.28 in    
Wind  
Wind Speed 12 mph (West)    
Max Wind Speed 23 mph    
Max Gust Speed 26 mph    
Visibility 10 miles    
Events      
T = Trace of Precipitation, MM = Missing Value Source: NWS Daily Summary

Daily Weather History Graph

Daily Weather History Graph

Search for Another Location

Airport:

Trip Planner

Search our weather history database for the weather conditions in past years. The results will help you decide how hot, cold, wet, or windy it might be!

Date:

Astronomy

Dec. 12, 2013 Rise Set
Actual Time 7:11 AM EST 4:29 PM EST
Civil Twilight 6:40 AM EST 5:00 PM EST
Nautical Twilight 6:06 AM EST 5:34 PM EST
Astronomical Twilight 5:32 AM EST 6:08 PM EST
Moon 1:36 PM EST (12/12) 2:30 AM EST (12/12)
Length of Visible Light 10h 19m
Length of Day
9h 18m
Waxing Gibbous, 80% of the Moon is Illuminated
Dec 12
Waxing Gibbous
Dec 17
Full
Dec 25
Last Quarter
Jan 1
New
Jan 7
First Quarter

Hourly Weather History & Observations

Time (EST) Temp. Windchill Dew Point Humidity Pressure Visibility Wind Dir Wind Speed Gust Speed Precip Events Conditions
12:51 AM 27.0 °F 17.3 °F 15.1 °F 61% 30.23 in 10.0 mi WNW 10.4 mph - N/A   Partly Cloudy
1:51 AM 26.1 °F 19.4 °F 15.1 °F 63% 30.25 in 10.0 mi West 5.8 mph - N/A   Scattered Clouds
2:51 AM 27.0 °F 20.5 °F 15.1 °F 61% 30.27 in 10.0 mi West 5.8 mph - N/A   Overcast
3:51 AM 26.1 °F 14.0 °F 15.1 °F 63% 30.27 in 10.0 mi NW 15.0 mph - N/A   Mostly Cloudy
4:51 AM 24.1 °F 12.0 °F 12.9 °F 62% 30.30 in 10.0 mi NNW 13.8 mph 20.7 mph N/A   Partly Cloudy
5:51 AM 23.0 °F 11.1 °F 10.0 °F 58% 30.30 in 10.0 mi NW 12.7 mph - N/A   Partly Cloudy
6:51 AM 23.0 °F 10.1 °F 6.1 °F 48% 30.32 in 10.0 mi WNW 15.0 mph 23.0 mph N/A   Partly Cloudy
7:51 AM 23.0 °F 10.6 °F 5.0 °F 46% 30.34 in 10.0 mi NW 13.8 mph - N/A   Scattered Clouds
8:51 AM 23.0 °F 11.1 °F 5.0 °F 46% 30.36 in 10.0 mi NW 12.7 mph 18.4 mph N/A   Scattered Clouds
9:51 AM 24.1 °F 10.1 °F 6.1 °F 46% 30.37 in 10.0 mi NW 18.4 mph 24.2 mph N/A   Scattered Clouds
10:51 AM 25.0 °F 12.6 °F 6.1 °F 45% 30.36 in 10.0 mi NW 15.0 mph 24.2 mph N/A   Scattered Clouds
11:51 AM 26.1 °F 13.1 °F 3.9 °F 39% 30.31 in 10.0 mi NW 17.3 mph - N/A   Scattered Clouds
12:51 PM 27.0 °F 16.1 °F 6.1 °F 41% 30.29 in 10.0 mi NNW 12.7 mph 19.6 mph N/A   Scattered Clouds
1:51 PM 27.0 °F 18.7 °F 7.0 °F 43% 30.27 in 10.0 mi West 8.1 mph 17.3 mph N/A   Scattered Clouds
2:51 PM 27.0 °F 16.7 °F 7.0 °F 43% 30.27 in 10.0 mi West 11.5 mph 19.6 mph N/A   Scattered Clouds
3:51 PM 26.1 °F 17.6 °F 7.0 °F 44% 30.26 in 10.0 mi SW 8.1 mph - N/A   Scattered Clouds
4:51 PM 26.1 °F 16.2 °F 5.0 °F 41% 30.26 in 10.0 mi WSW 10.4 mph - N/A   Scattered Clouds
5:51 PM 24.1 °F 13.7 °F 7.0 °F 48% 30.27 in 10.0 mi SW 10.4 mph - N/A   Partly Cloudy
6:51 PM 24.1 °F 13.1 °F 7.0 °F 48% 30.27 in 10.0 mi WSW 11.5 mph - N/A   Partly Cloudy
7:51 PM 23.0 °F 10.1 °F 7.0 °F 50% 30.27 in 10.0 mi WSW 15.0 mph 21.9 mph N/A   Clear
8:51 PM 21.9 °F 10.4 °F 7.0 °F 53% 30.25 in 10.0 mi SW 11.5 mph - N/A   Clear
9:51 PM 21.9 °F 11.0 °F 7.0 °F 53% 30.22 in 10.0 mi SW 10.4 mph - N/A   Clear
10:51 PM 21.0 °F 11.4 °F 7.0 °F 55% 30.21 in 10.0 mi SW 8.1 mph - N/A   Scattered Clouds
11:51 PM 19.9 °F 9.3 °F 7.0 °F 57% 30.18 in 10.0 mi SW 9.2 mph - N/A   Mostly Cloudy